EW7157 Weather Reports


time (UTC)temp
C
wind
direction
speed
KPH
gust
KPH
rain 1hr
cm
rain 24hr
cm
rain mn
cm
humidity
%
barometer
mb
20260504050023 7 135 0.0 0.0 0.00 0.00 0.00 58 1036.3
20260504045024 7 135 0.0 0.0 0.00 0.00 0.00 60 1036.3
20260504044025 7 135 0.0 0.0 0.00 0.00 0.00 60 1036.4
20260504043024 7 135 0.0 0.0 0.00 0.00 0.00 60 1036.2
20260504042023 7 135 0.0 0.0 0.00 0.00 0.00 59 1036.2
20260504041024 7 135 0.0 0.0 0.00 0.00 0.00 59 1036.0
20260504040036 7 135 0.0 0.0 0.00 0.00 0.00 59 1036.0
20260504035028 7 135 0.0 0.0 0.00 0.00 0.00 58 1036.0
20260504034029 7 135 0.0 0.0 0.00 0.00 0.00 58 1035.9
20260504033028 7 135 0.0 0.0 0.00 0.00 0.00 59 1035.9
20260504032028 8 135 0.0 0.0 0.00 0.00 0.00 59 1035.9
20260504031027 8 135 0.0 0.0 0.00 0.00 0.00 58 1035.7
20260504030027 8 135 0.0 0.0 0.00 0.00 0.00 56 1035.8
20260504025028 8 135 0.0 0.0 0.00 0.00 0.00 55 1035.9
20260504024127 8 135 0.0 0.0 0.00 0.00 0.00 55 1035.9
20260504024028 8 135 0.0 0.0 0.00 0.00 0.00 55 1035.9
20260504023027 8 135 0.0 0.0 0.00 0.00 0.00 54 1035.9
20260504021028 9 135 0.0 0.0 0.00 0.00 0.00 53 1035.9
20260504020029 9 135 0.0 0.0 0.00 0.00 0.00 53 1035.8
20260504015030 9 135 0.0 0.0 0.00 0.00 0.00 52 1035.9
20260504014027 10 135 0.0 0.0 0.00 0.00 0.00 51 1035.8
20260504012929 10 135 0.0 0.0 0.00 0.00 0.00 50 1035.7
20260504011929 10 135 0.0 0.0 0.00 0.00 0.00 49 1035.7
20260504011027 10 135 0.0 0.0 0.00 0.00 0.00 47 1035.4
20260504010028 11 135 0.0 0.0 0.00 0.00 0.00 47 1035.4
20260504005127 11 135 0.0 0.0 0.00 0.00 0.00 46 1035.2
20260504004129 11 135 0.0 0.0 0.00 0.00 0.00 46 1035.1
20260504003227 11 135 0.0 0.0 0.00 0.00 0.00 45 1035.0
20260504002229 11 135 0.0 0.0 0.00 0.00 0.00 43 1034.9
20260504001229 11 135 0.0 0.0 0.00 0.00 0.00 43 1034.8
20260504000227 12 135 0.0 0.0 0.00 0.00 0.00 43 1034.8
20260503233327 13 135 0.0 0.0 0.00 0.00 0.00 37 1034.6
20260503233228 13 135 0.0 0.0 0.00 0.00 0.00 37 1034.6
20260503232228 13 135 0.0 0.0 0.00 0.00 0.00 36 1034.5
20260503231327 13 135 0.0 1.6 0.00 0.00 0.00 34 1034.5
20260503225327 14 180 0.0 0.0 0.00 0.00 0.00 33 1034.4
20260503223330 14 90 0.0 0.0 0.00 0.00 0.00 33 1034.3
20260503222428 15 90 0.0 3.2 0.00 0.00 0.00 32 1034.2
20260503221428 15 180 0.0 0.0 0.00 0.00 0.00 31 1034.2
20260503220428 15 135 0.0 1.6 0.00 0.00 0.00 31 1034.2
20260503215527 15 202 0.0 1.6 0.00 0.00 0.00 31 1034.3
20260503215443 15 190 1.6 6.4 0.00 0.00 0.00 31 1034.3
20260503213429 15 98 0.0 1.6 0.00 0.00 0.00 30 1034.2
20260503212429 15 157 0.0 4.8 0.00 0.00 0.00 30 1034.2
20260503211429 15 349 0.0 1.6 0.00 0.00 0.00 29 1034.2
20260503205528 16 78 0.0 0.0 0.00 0.00 0.00 29 1034.3
20260503204528 16 197 1.6 11.3 0.00 0.00 0.00 28 1034.3
20260503203628 16 150 1.6 3.2 0.00 0.00 0.00 26 1034.5
20260503201727 16 215 0.0 0.0 0.00 0.00 0.00 28 1034.4
20260503200731 16 135 1.6 6.4 0.00 0.00 0.00 28 1034.6
20260503195827 17 178 0.0 6.4 0.00 0.00 0.00 27 1034.5
20260503192830 17 123 1.6 6.4 0.00 0.00 0.00 26 1034.8
20260503191830 16 93 1.6 8.0 0.00 0.00 0.00 28 1035.0
20260503190828 16 146 0.0 3.2 0.00 0.00 0.00 29 1035.0
20260503185828 15 144 3.2 12.9 0.00 0.00 0.00 29 1035.1
20260503183929 16 265 0.0 0.0 0.00 0.00 0.00 28 1035.1
20260503182928 16 150 1.6 8.0 0.00 0.00 0.00 27 1035.4
20260503182828 16 135 0.0 3.2 0.00 0.00 0.00 28 1035.3
20260503180829 16 127 0.0 3.2 0.00 0.00 0.00 29 1035.3
20260503180727 16 168 0.0 4.8 0.00 0.00 0.00 29 1035.4
20260503175730 15 31 0.0 6.4 0.00 0.00 0.00 30 1035.3
20260503174827 15 109 1.6 6.4 0.00 0.00 0.00 31 1035.7
20260503174727 15 170 1.6 4.8 0.00 0.00 0.00 31 1035.7
20260503173730 15 360 0.0 1.6 0.00 0.00 0.00 29 1035.7
20260503172828 15 164 0.0 1.6 0.00 0.00 0.00 30 1035.9
20260503172727 15 180 0.0 3.2 0.00 0.00 0.00 30 1035.8
20260503171729 15 207 1.6 6.4 0.00 0.00 0.00 31 1035.8
20260503170730 14 90 1.6 3.2 0.00 0.00 0.00 33 1035.9
20260503150529 11 135 0.0 1.6 0.00 0.00 0.00 39 1036.4
20260503130527 9 90 0.0 0.0 0.00 0.00 0.00 51 1036.1
20260503110528 6 180 0.0 0.0 0.00 0.00 0.00 65 1035.2
20260503081629 3 157 0.0 0.0 0.00 0.00 0.00 77 1032.9
20260503072627 5 157 0.0 0.0 0.00 0.00 0.00 74 1032.7
20260503071629 5 157 0.0 0.0 0.00 0.00 0.00 72 1032.8
20260503070727 5 157 0.0 0.0 0.00 0.00 0.00 73 1032.7
20260503055028 5 157 0.0 0.0 0.00 0.00 0.00 69 1033.2
20260503054927 5 157 0.0 0.0 0.00 0.00 0.00 68 1033.1
20260503053929 5 157 0.0 0.0 0.00 0.00 0.00 67 1033.2